Tracking 19709 objects as of 18-Jun-2019
HD Live streaming from Space Station
objects crossing your sky now

DMSP 5D-2 F11 DEB

Track DMSP 5D-2 F11 DEB now!
10-day predictions


NORAD ID: 28318
Int'l Code: 1991-082AF
Perigee: 746.7 km
Apogee: 820.6 km
Inclination: 98.8 °
Period: 100.4 minutes
Semi major axis: 7154 km
RCS: 0.0172 m2 (small)
Launch date: November 28, 1991
Source: United States (US)
Launch site: AIR FORCE WESTERN TEST RANGE (AFWTR)

Note: This is SATELLITE DEBRIS
aabbcc
Your satellite tracking list
Your tracking list is empty




NASA's NSSDC Master Catalog

Two Line Element Set (TLE):
1 28318U 91082AF  19169.38179579  .00001165  00000-0  42270-3 0  9998
2 28318  98.7744 222.2357 0051689 296.7058 125.3221 14.34567151784374
Source of the keplerian elements: AFSPC